M I D A S
Marine Information and Data Acquisition System
Tripno 401 of the Zeeleeuw from 2002-10-30 04:17:05 to 2002-10-30 16:15:50
Back to CruiseResearch ActivitiesStationsMapUnderway DataData graphs

EquipmentUnitsComments
TimeDGPSUTC
LatitudeDGPSDM.mWGS84
LongitudeDGPSDM.mWGS84
SpeedMeteo Stationm/sRelative wind speed
DirectionMeteo StationdegRelative wind direction
TemperatureMeteo Stationdeg CelciusAir temperature
PressureMeteo StationPaAtmospheric pressure
HumidityMeteo Station%Relative humidity
Missing or incorrect values are displayed as -999
Metereological data collected by the RV Zeeleeuw from 2002-10-30 04:17:05 to 2002-10-30 16:15:50
                                                                                    Next 1000 lines
Time Latitude Longitude Speed Direction Temperature Pressure Humidity
2002-10-30 04:17:13 51°13.67 2°55.899 4.2 19 12.8 101150 93
2002-10-30 04:17:17 51°13.67 2°55.894 4.3 20 12.8 101150 93
2002-10-30 04:17:22 51°13.67 2°55.887 4.7 16 12.8 101150 93
2002-10-30 04:17:26 51°13.67 2°55.882 5.3 12 12.8 101150 93
2002-10-30 04:17:33 51°13.671 2°55.873 4.6 16 12.8 101150 93
2002-10-30 04:17:37 51°13.671 2°55.868 4.7 18 12.8 101150 93
2002-10-30 04:17:42 51°13.671 2°55.862 4.3 15 12.8 101150 93
2002-10-30 04:17:47 51°13.671 2°55.857 4.6 11 12.8 101150 93
2002-10-30 04:17:53 51°13.671 2°55.85 3.9 5 12.8 101150 93
2002-10-30 04:17:57 51°13.671 2°55.846 4 5 12.8 101150 93
2002-10-30 04:18:02 51°13.671 2°55.84 3.8 5 12.8 101150 93
2002-10-30 04:18:06 51°13.671 2°55.836 4.1 1 12.8 101150 93
2002-10-30 04:18:12 51°13.671 2°55.83 3.7 1 12.8 101150 93
2002-10-30 04:18:17 51°13.671 2°55.826 3.9 349 12.8 101150 93
2002-10-30 04:18:22 51°13.671 2°55.821 3.1 349 12.8 101150 93
2002-10-30 04:18:26 51°13.671 2°55.817 3 6 12.8 101150 93
2002-10-30 04:18:32 51°13.671 2°55.812 3.4 353 12.8 101150 93
2002-10-30 04:18:37 51°13.671 2°55.808 2.5 348 12.8 101150 93
2002-10-30 04:18:42 51°13.671 2°55.803 3.4 2 12.8 101150 93
2002-10-30 04:18:46 51°13.671 2°55.8 3.1 1 12.8 101150 93
2002-10-30 04:18:52 51°13.67 2°55.795 3.1 358 12.8 101150 93
2002-10-30 04:18:56 51°13.67 2°55.792 1.4 342 12.8 101150 93
2002-10-30 04:19:02 51°13.67 2°55.788 1.2 325 12.8 101150 93
2002-10-30 04:19:07 51°13.67 2°55.787 0.6 311 12.8 101160 93
2002-10-30 04:19:12 51°13.671 2°55.787 3 292 12.8 101160 93
2002-10-30 04:19:17 51°13.673 2°55.788 3.2 285 12.8 101150 93
2002-10-30 04:19:22 51°13.675 2°55.791 4.3 282 12.8 101150 93
2002-10-30 04:19:26 51°13.677 2°55.792 4.3 275 12.8 101150 93
2002-10-30 04:19:32 51°13.68 2°55.794 5.3 267 12.8 101150 93
2002-10-30 04:19:37 51°13.684 2°55.796 5.4 266 12.8 101150 93
2002-10-30 04:19:41 51°13.687 2°55.796 5 257 12.8 101150 93
2002-10-30 04:19:46 51°13.691 2°55.796 4.9 260 12.8 101150 93
2002-10-30 04:19:52 51°13.697 2°55.796 5.2 248 12.8 101150 93
2002-10-30 04:19:57 51°13.701 2°55.794 5.5 248 12.8 101150 93
2002-10-30 04:20:02 51°13.706 2°55.791 5.6 242 12.8 101150 93
2002-10-30 04:20:07 51°13.711 2°55.788 5.9 238 12.8 101150 93
2002-10-30 04:20:12 51°13.716 2°55.783 5 234 12.8 101150 93
2002-10-30 04:20:17 51°13.72 2°55.777 4.9 245 12.8 101150 93
2002-10-30 04:20:22 51°13.724 2°55.772 5.4 235 12.8 101150 93
2002-10-30 04:20:26 51°13.727 2°55.768 5 228 12.8 101150 93
2002-10-30 04:20:32 51°13.731 2°55.762 5.2 234 12.8 101150 93
2002-10-30 04:20:37 51°13.734 2°55.758 4.7 227 12.8 101150 93
2002-10-30 04:20:42 51°13.737 2°55.754 4.7 219 12.8 101150 93
2002-10-30 04:20:45 51°13.738 2°55.751 4.5 222 12.8 101150 93
2002-10-30 04:20:52 51°13.741 2°55.747 4.2 220 12.8 101150 93
2002-10-30 04:20:57 51°13.742 2°55.743 3.9 218 12.8 101150 93
2002-10-30 04:21:01 51°13.743 2°55.741 4.7 218 12.8 101150 93
2002-10-30 04:21:06 51°13.745 2°55.737 5.2 218 12.8 101160 93
2002-10-30 04:21:12 51°13.746 2°55.733 4.9 221 12.8 101160 93
2002-10-30 04:21:17 51°13.748 2°55.73 4.8 221 12.8 101150 93
2002-10-30 04:21:22 51°13.749 2°55.727 4 213 12.8 101150 93
2002-10-30 04:21:26 51°13.75 2°55.725 3.9 215 12.8 101150 93
2002-10-30 04:21:32 51°13.751 2°55.721 4.4 204 12.8 101150 93
2002-10-30 04:21:37 51°13.752 2°55.718 4.9 212 12.8 101150 93
2002-10-30 04:21:42 51°13.753 2°55.715 3.8 209 12.8 101150 93
2002-10-30 04:21:46 51°13.754 2°55.713 4 216 12.8 101150 93
2002-10-30 04:21:52 51°13.755 2°55.709 4.9 202 12.8 101150 93
2002-10-30 04:21:57 51°13.756 2°55.706 4.2 201 12.8 101150 93
2002-10-30 04:22:02 51°13.757 2°55.704 3.9 201 12.8 101150 93
2002-10-30 04:22:06 51°13.758 2°55.702 4.5 206 12.8 101150 93
2002-10-30 04:22:12 51°13.759 2°55.699 4.2 206 12.8 101150 93
2002-10-30 04:22:17 51°13.76 2°55.696 3.9 211 12.8 101150 93
2002-10-30 04:22:22 51°13.761 2°55.694 4.2 214 12.8 101150 93
2002-10-30 04:22:26 51°13.762 2°55.692 4.2 217 12.7 101150 93
2002-10-30 04:22:32 51°13.763 2°55.689 3.8 211 12.7 101150 93
2002-10-30 04:22:37 51°13.764 2°55.687 4.1 213 12.7 101150 93
2002-10-30 04:22:42 51°13.765 2°55.685 4.1 208 12.7 101150 93
2002-10-30 04:22:47 51°13.766 2°55.683 4 209 12.7 101150 93
2002-10-30 04:22:50 51°13.767 2°55.682 4 214 12.7 101150 93
2002-10-30 04:22:57 51°13.768 2°55.679 4 218 12.7 101150 93
2002-10-30 04:23:02 51°13.769 2°55.678 3.6 225 12.7 101150 93
2002-10-30 04:23:06 51°13.769 2°55.677 3.9 229 12.7 101150 93
2002-10-30 04:23:12 51°13.77 2°55.676 4.2 215 12.7 101150 93
2002-10-30 04:23:17 51°13.77 2°55.676 3.6 217 12.7 101150 93
2002-10-30 04:23:22 51°13.769 2°55.677 3.6 214 12.7 101150 93
2002-10-30 04:23:26 51°13.769 2°55.678 3.4 216 12.7 101150 93
2002-10-30 04:23:32 51°13.768 2°55.68 3.8 223 12.7 101150 93
2002-10-30 04:23:37 51°13.767 2°55.681 3.6 224 12.7 101150 93
2002-10-30 04:23:42 51°13.766 2°55.683 3.4 215 12.7 101150 93
2002-10-30 04:23:47 51°13.765 2°55.684 3.1 217 12.7 101150 93
2002-10-30 04:23:53 51°13.764 2°55.686 3 224 12.7 101150 93
2002-10-30 04:23:57 51°13.763 2°55.686 3.2 222 12.7 101150 93
2002-10-30 04:24:02 51°13.762 2°55.688 3.8 225 12.7 101150 93
2002-10-30 04:24:07 51°13.761 2°55.689 3.6 225 12.7 101150 93
2002-10-30 04:24:13 51°13.761 2°55.69 4.2 222 12.7 101150 93
2002-10-30 04:24:18 51°13.76 2°55.691 4 226 12.7 101160 93
2002-10-30 04:24:22 51°13.759 2°55.692 3.5 222 12.7 101160 93
2002-10-30 04:24:27 51°13.759 2°55.693 3.5 219 12.7 101150 93
2002-10-30 04:24:32 51°13.758 2°55.694 4.2 227 12.7 101150 93
2002-10-30 04:24:37 51°13.758 2°55.695 4.4 228 12.7 101150 93
2002-10-30 04:24:42 51°13.757 2°55.695 4.2 224 12.7 101150 93
2002-10-30 04:24:46 51°13.756 2°55.696 4.5 222 12.7 101160 93
2002-10-30 04:24:52 51°13.756 2°55.697 3.4 239 12.7 101160 93
2002-10-30 04:24:57 51°13.755 2°55.697 3.6 223 12.7 101160 93
2002-10-30 04:25:01 51°13.755 2°55.697 3.6 229 12.7 101160 93
2002-10-30 04:25:06 51°13.754 2°55.698 3.4 225 12.7 101160 93
2002-10-30 04:25:12 51°13.753 2°55.698 3.9 226 12.7 101160 93
2002-10-30 04:25:17 51°13.753 2°55.698 3.9 226 12.7 101160 93
2002-10-30 04:25:22 51°13.752 2°55.699 4.6 223 12.7 101160 93
2002-10-30 04:25:26 51°13.752 2°55.699 4.2 224 12.7 101160 93
2002-10-30 04:25:32 51°13.751 2°55.699 4.1 219 12.7 101160 93
2002-10-30 04:25:37 51°13.75 2°55.699 4.6 217 12.7 101150 93
2002-10-30 04:25:42 51°13.75 2°55.699 3.9 230 12.7 101150 93
2002-10-30 04:25:46 51°13.75 2°55.699 4 226 12.7 101160 93
2002-10-30 04:25:49 51°13.749 2°55.699 4.2 218 12.7 101160 93
2002-10-30 04:25:57 51°13.749 2°55.7 3.8 220 12.7 101160 93
2002-10-30 04:26:01 51°13.749 2°55.7 4.2 220 12.7 101160 93
2002-10-30 04:26:06 51°13.748 2°55.7 3.8 218 12.7 101160 93
2002-10-30 04:26:12 51°13.748 2°55.7 3.7 223 12.7 101160 93
2002-10-30 04:26:17 51°13.748 2°55.701 3.9 224 12.7 101160 93
2002-10-30 04:26:22 51°13.748 2°55.701 3.9 221 12.7 101160 93
2002-10-30 04:26:26 51°13.747 2°55.701 3.5 221 12.7 101160 93
2002-10-30 04:26:32 51°13.747 2°55.701 3.6 224 12.7 101160 93
2002-10-30 04:26:37 51°13.747 2°55.701 3.6 223 12.7 101160 93
2002-10-30 04:26:42 51°13.747 2°55.701 4 219 12.7 101160 93
2002-10-30 04:26:46 51°13.747 2°55.701 3.7 219 12.7 101160 93
2002-10-30 04:26:52 51°13.746 2°55.701 3.4 223 12.7 101160 93
2002-10-30 04:26:56 51°13.746 2°55.701 3.5 218 12.7 101160 93
2002-10-30 04:27:01 51°13.746 2°55.701 3.6 219 12.7 101160 93
2002-10-30 04:27:05 51°13.746 2°55.701 3.2 218 12.7 101160 93
2002-10-30 04:27:12 51°13.746 2°55.701 3.1 216 12.7 101160 93
2002-10-30 04:27:16 51°13.746 2°55.701 3.6 221 12.7 101160 93
2002-10-30 04:27:22 51°13.746 2°55.701 3.2 217 12.7 101160 93
2002-10-30 04:27:26 51°13.746 2°55.701 3.3 217 12.7 101160 93
2002-10-30 04:27:32 51°13.746 2°55.701 3.3 213 12.7 101160 93
2002-10-30 04:27:37 51°13.746 2°55.7 3 215 12.7 101160 93
2002-10-30 04:27:42 51°13.746 2°55.7 3.5 214 12.7 101160 93
2002-10-30 04:27:46 51°13.746 2°55.7 3.6 211 12.7 101160 93
2002-10-30 04:27:52 51°13.746 2°55.7 2.8 220 12.7 101160 93
2002-10-30 04:27:57 51°13.746 2°55.7 2.9 221 12.7 101160 93
2002-10-30 04:28:02 51°13.746 2°55.699 3.3 220 12.7 101160 93
2002-10-30 04:28:06 51°13.746 2°55.699 3.5 216 12.7 101160 93
2002-10-30 04:28:12 51°13.746 2°55.699 3.3 220 12.7 101160 93
2002-10-30 04:28:16 51°13.746 2°55.699 3.1 219 12.7 101160 93
2002-10-30 04:28:22 51°13.746 2°55.699 3.1 213 12.7 101160 93
2002-10-30 04:28:26 51°13.746 2°55.698 3.2 218 12.7 101160 93
2002-10-30 04:28:32 51°13.746 2°55.698 3.1 215 12.7 101160 93
2002-10-30 04:28:36 51°13.746 2°55.698 3 224 12.7 101160 93
2002-10-30 04:28:41 51°13.747 2°55.698 3.2 218 12.7 101160 93
2002-10-30 04:28:50 51°13.747 2°55.698 3.1 217 12.7 101160 93
2002-10-30 04:28:54 51°13.747 2°55.698 2.6 224 12.7 101160 93
2002-10-30 04:29:01 51°13.747 2°55.698 2.4 217 12.7 101160 93
2002-10-30 04:29:06 51°13.747 2°55.698 3 219 12.6 101160 93
2002-10-30 04:29:10 51°13.748 2°55.698 3.1 220 12.6 101160 93
2002-10-30 04:29:14 51°13.748 2°55.697 2.8 222 12.7 101160 93
2002-10-30 04:29:21 51°13.748 2°55.697 2.9 222 12.7 101160 93
2002-10-30 04:29:25 51°13.748 2°55.697 3.3 225 12.6 101160 93
2002-10-30 04:29:30 51°13.748 2°55.697 3.3 224 12.6 101160 93
2002-10-30 04:29:34 51°13.748 2°55.697 3.1 222 12.6 101160 93
2002-10-30 04:29:41 51°13.748 2°55.697 3.1 220 12.6 101160 93
2002-10-30 04:29:45 51°13.749 2°55.697 2.9 224 12.6 101170 93
2002-10-30 04:29:50 51°13.749 2°55.696 3.1 223 12.6 101170 93
2002-10-30 04:29:56 51°13.749 2°55.696 2.9 226 12.6 101170 93
2002-10-30 04:30:01 51°13.749 2°55.696 3.2 226 12.6 101170 93
2002-10-30 04:30:05 51°13.749 2°55.696 3.1 223 12.7 101160 93
2002-10-30 04:30:11 51°13.749 2°55.695 2.7 225 12.7 101160 93
2002-10-30 04:30:14 51°13.749 2°55.695 3 227 12.6 101170 93
2002-10-30 04:30:21 51°13.749 2°55.695 2.9 225 12.6 101170 93
2002-10-30 04:30:26 51°13.749 2°55.694 2.8 224 12.6 101170 93
2002-10-30 04:30:31 51°13.749 2°55.694 2.7 224 12.6 101170 93
2002-10-30 04:30:35 51°13.749 2°55.694 2.6 221 12.7 101170 93
2002-10-30 04:30:41 51°13.749 2°55.693 3.2 225 12.7 101170 93
2002-10-30 04:30:45 51°13.749 2°55.693 3.2 227 12.6 101170 93
2002-10-30 04:30:51 51°13.75 2°55.693 3 226 12.6 101170 93
2002-10-30 04:30:54 51°13.75 2°55.692 3.2 226 12.6 101170 93
2002-10-30 04:31:01 51°13.75 2°55.692 3.3 225 12.6 101170 93
2002-10-30 04:31:05 51°13.75 2°55.692 3.2 224 12.6 101170 93
2002-10-30 04:31:10 51°13.75 2°55.691 3.5 225 12.6 101170 93
2002-10-30 04:31:14 51°13.751 2°55.691 4 226 12.6 101170 93
2002-10-30 04:31:21 51°13.751 2°55.691 3.4 228 12.6 101170 93
2002-10-30 04:31:26 51°13.751 2°55.69 3.1 223 12.6 101170 93
2002-10-30 04:31:30 51°13.751 2°55.69 2.8 227 12.6 101170 93
2002-10-30 04:31:36 51°13.751 2°55.69 3.4 231 12.6 101170 93
2002-10-30 04:31:41 51°13.752 2°55.689 3.1 229 12.6 101170 93
2002-10-30 04:31:45 51°13.752 2°55.689 3.5 226 12.6 101170 93
2002-10-30 04:31:51 51°13.752 2°55.689 2.8 227 12.6 101170 93
2002-10-30 04:31:54 51°13.752 2°55.689 3.3 226 12.6 101170 93
2002-10-30 04:32:01 51°13.753 2°55.688 3.3 222 12.6 101170 93
2002-10-30 04:32:06 51°13.753 2°55.688 3.4 223 12.6 101170 93
2002-10-30 04:32:11 51°13.753 2°55.687 3.6 225 12.6 101170 93
2002-10-30 04:32:14 51°13.754 2°55.687 3.6 224 12.6 101170 93
2002-10-30 04:32:21 51°13.754 2°55.686 3.6 224 12.6 101170 93
2002-10-30 04:32:26 51°13.754 2°55.686 3.9 225 12.6 101170 93
2002-10-30 04:32:30 51°13.754 2°55.686 3.8 228 12.6 101170 93
2002-10-30 04:32:34 51°13.754 2°55.685 3.9 227 12.6 101170 93
2002-10-30 04:32:41 51°13.755 2°55.685 3.5 226 12.6 101170 93
2002-10-30 04:32:45 51°13.755 2°55.684 3.6 219 12.6 101170 93
2002-10-30 04:32:51 51°13.755 2°55.684 3.4 222 12.6 101170 93
2002-10-30 04:32:56 51°13.755 2°55.683 3.5 223 12.6 101170 93
2002-10-30 04:33:01 51°13.755 2°55.683 3.1 226 12.6 101170 93
2002-10-30 04:33:05 51°13.756 2°55.683 3.5 225 12.6 101160 93
2002-10-30 04:33:09 51°13.756 2°55.683 3.4 225 12.6 101160 93
2002-10-30 04:33:14 51°13.756 2°55.682 3.5 225 12.6 101170 93
2002-10-30 04:33:21 51°13.756 2°55.682 3.4 224 12.6 101170 93
2002-10-30 04:33:26 51°13.757 2°55.681 3.5 229 12.6 101170 93
2002-10-30 04:33:30 51°13.757 2°55.681 3.1 224 12.6 101170 93
2002-10-30 04:33:34 51°13.757 2°55.681 3.1 232 12.7 101160 93
2002-10-30 04:33:41 51°13.758 2°55.68 3.2 224 12.7 101160 93
2002-10-30 04:33:45 51°13.758 2°55.68 2.9 221 12.7 101160 93
2002-10-30 04:33:50 51°13.758 2°55.68 3.7 228 12.7 101160 93
2002-10-30 04:33:54 51°13.758 2°55.68 3.4 226 12.6 101170 93
2002-10-30 04:34:01 51°13.759 2°55.679 3.3 224 12.6 101170 93
2002-10-30 04:34:06 51°13.759 2°55.679 3.4 226 12.7 101170 93
2002-10-30 04:34:09 51°13.759 2°55.679 3.3 232 12.7 101170 93
2002-10-30 04:34:21 51°13.76 2°55.678 3.2 226 12.7 101170 93
2002-10-30 04:34:26 51°13.76 2°55.677 3.4 235 12.7 101170 93
2002-10-30 04:34:30 51°13.76 2°55.677 3.3 222 12.7 101170 93
2002-10-30 04:34:34 51°13.761 2°55.676 3 225 12.7 101160 93
2002-10-30 04:34:41 51°13.761 2°55.675 2.8 222 12.7 101160 93
2002-10-30 04:34:45 51°13.761 2°55.675 3.1 220 12.7 101160 93
2002-10-30 04:34:50 51°13.761 2°55.674 2.6 222 12.7 101160 93
2002-10-30 04:34:55 51°13.762 2°55.674 2.2 221 12.7 101170 93
2002-10-30 04:35:01 51°13.762 2°55.673 2.6 227 12.7 101170 93
2002-10-30 04:35:06 51°13.762 2°55.673 2.8 225 12.6 101160 93
2002-10-30 04:35:10 51°13.762 2°55.672 2.7 215 12.6 101160 93
2002-10-30 04:35:14 51°13.763 2°55.672 2.6 216 12.7 101170 93
2002-10-30 04:35:21 51°13.763 2°55.671 2.9 216 12.7 101170 93
2002-10-30 04:35:25 51°13.763 2°55.671 2.6 217 12.7 101160 93
2002-10-30 04:35:30 51°13.764 2°55.67 2.9 208 12.7 101160 93
2002-10-30 04:35:34 51°13.764 2°55.67 3.5 223 12.6 101160 93
2002-10-30 04:35:41 51°13.765 2°55.669 3.5 215 12.6 101160 93
2002-10-30 04:35:45 51°13.765 2°55.668 2.9 217 12.6 101160 93
2002-10-30 04:35:50 51°13.765 2°55.668 2.8 219 12.6 101160 93
2002-10-30 04:35:54 51°13.766 2°55.667 3.2 213 12.6 101160 93
2002-10-30 04:36:01 51°13.766 2°55.666 3.3 202 12.6 101160 93
2002-10-30 04:36:06 51°13.767 2°55.666 3.3 211 12.6 101160 93
2002-10-30 04:36:10 51°13.767 2°55.665 3 228 12.6 101160 93
2002-10-30 04:36:14 51°13.767 2°55.665 3 226 12.6 101160 93
2002-10-30 04:36:21 51°13.768 2°55.664 3 216 12.6 101160 93
2002-10-30 04:36:25 51°13.768 2°55.664 2.9 217 12.6 101160 93
2002-10-30 04:36:30 51°13.768 2°55.663 3.7 234 12.6 101160 93
2002-10-30 04:36:36 51°13.769 2°55.663 2.4 232 12.6 101160 93
2002-10-30 04:36:41 51°13.769 2°55.662 2.7 219 12.6 101160 93
2002-10-30 04:36:45 51°13.77 2°55.662 3.3 222 12.6 101160 93
2002-10-30 04:36:50 51°13.771 2°55.661 2.7 209 12.6 101160 93
2002-10-30 04:36:56 51°13.772 2°55.66 2.7 230 12.6 101160 93
2002-10-30 04:37:01 51°13.773 2°55.659 3.7 213 12.6 101160 93
2002-10-30 04:37:05 51°13.774 2°55.658 2.8 217 12.6 101160 93
2002-10-30 04:37:10 51°13.775 2°55.656 3.9 248 12.6 101160 93
2002-10-30 04:37:14 51°13.776 2°55.655 3.6 235 12.6 101170 93
2002-10-30 04:37:21 51°13.779 2°55.653 3.2 234 12.6 101170 93
2002-10-30 04:37:26 51°13.782 2°55.651 4.2 241 12.6 101160 93
2002-10-30 04:37:30 51°13.784 2°55.65 4 217 12.6 101160 93
2002-10-30 04:37:34 51°13.787 2°55.648 3.6 226 12.6 101160 93
2002-10-30 04:37:41 51°13.793 2°55.644 4.8 237 12.6 101160 93
2002-10-30 04:37:45 51°13.797 2°55.641 5.2 234 12.6 101160 93
2002-10-30 04:37:51 51°13.803 2°55.637 5.6 237 12.6 101160 93
2002-10-30 04:37:56 51°13.809 2°55.632 5.8 236 12.6 101160 93
2002-10-30 04:38:01 51°13.815 2°55.628 5.5 239 12.6 101160 93
2002-10-30 04:38:05 51°13.82 2°55.624 5.5 228 12.6 101160 93
2002-10-30 04:38:11 51°13.827 2°55.619 5.8 233 12.6 101160 93
2002-10-30 04:38:14 51°13.831 2°55.616 6.4 238 12.6 101160 93
2002-10-30 04:38:21 51°13.841 2°55.61 6.7 235 12.6 101160 93
2002-10-30 04:38:25 51°13.847 2°55.606 5.8 235 12.6 101160 93
2002-10-30 04:38:30 51°13.854 2°55.602 6.4 235 12.6 101160 93
2002-10-30 04:38:34 51°13.86 2°55.598 6.7 237 12.6 101160 93
2002-10-30 04:38:41 51°13.87 2°55.591 6 237 12.6 101160 93
2002-10-30 04:38:45 51°13.876 2°55.586 6.7 234 12.6 101160 93
2002-10-30 04:38:50 51°13.884 2°55.581 7.2 231 12.6 101160 93
2002-10-30 04:38:54 51°13.891 2°55.577 6.7 233 12.6 101160 93
2002-10-30 04:39:01 51°13.902 2°55.57 8 233 12.6 101160 93
2002-10-30 04:39:06 51°13.91 2°55.564 7.2 230 12.6 101160 93
2002-10-30 04:39:09 51°13.915 2°55.561 7.4 239 12.6 101160 93
2002-10-30 04:39:14 51°13.923 2°55.555 6.8 234 12.6 101160 93
2002-10-30 04:39:21 51°13.935 2°55.548 6.7 234 12.6 101160 93
2002-10-30 04:39:25 51°13.942 2°55.545 6.7 236 12.6 101160 93
2002-10-30 04:39:30 51°13.95 2°55.539 7.5 234 12.6 101160 93
2002-10-30 04:39:36 51°13.96 2°55.533 6.7 237 12.6 101160 93
2002-10-30 04:39:41 51°13.969 2°55.527 6.7 233 12.6 101160 93
2002-10-30 04:39:45 51°13.976 2°55.523 7.2 235 12.6 101160 93
2002-10-30 04:39:50 51°13.985 2°55.517 7.7 232 12.6 101160 93
2002-10-30 04:39:56 51°13.995 2°55.51 8 236 12.6 101160 93
2002-10-30 04:40:01 51°14.004 2°55.504 7.6 233 12.6 101160 93
2002-10-30 04:40:05 51°14.011 2°55.499 6.9 233 12.6 101160 93
2002-10-30 04:40:11 51°14.022 2°55.491 7.6 232 12.6 101160 93
2002-10-30 04:40:16 51°14.031 2°55.485 7.7 235 12.6 101160 93
2002-10-30 04:40:21 51°14.04 2°55.478 7.6 231 12.6 101160 93
2002-10-30 04:40:25 51°14.047 2°55.472 7.1 236 12.6 101160 93
2002-10-30 04:40:30 51°14.057 2°55.465 8.4 234 12.6 101160 93
2002-10-30 04:40:34 51°14.064 2°55.46 8.1 231 12.6 101160 93
2002-10-30 04:40:41 51°14.078 2°55.45 8 237 12.6 101160 93
2002-10-30 04:40:46 51°14.087 2°55.443 9.1 235 12.6 101160 93
2002-10-30 04:40:51 51°14.097 2°55.435 8.3 236 12.6 101160 93
2002-10-30 04:40:54 51°14.103 2°55.431 8.9 237 12.6 101160 93
2002-10-30 04:41:01 51°14.117 2°55.421 8.9 232 12.6 101160 93
2002-10-30 04:41:06 51°14.127 2°55.414 9.1 235 12.6 101160 93
2002-10-30 04:41:10 51°14.134 2°55.409 8.6 227 12.6 101160 93
2002-10-30 04:41:14 51°14.142 2°55.403 8.6 235 12.5 101160 93
2002-10-30 04:41:21 51°14.156 2°55.392 8.6 232 12.5 101160 93
2002-10-30 04:41:25 51°14.164 2°55.386 8.3 232 12.6 101150 93
2002-10-30 04:41:31 51°14.175 2°55.376 8.4 234 12.6 101150 93
2002-10-30 04:41:34 51°14.181 2°55.371 8.7 229 12.6 101160 93
2002-10-30 04:41:41 51°14.194 2°55.359 8.6 228 12.6 101160 93
2002-10-30 04:41:46 51°14.203 2°55.349 8.8 227 12.5 101160 93
2002-10-30 04:41:51 51°14.212 2°55.339 8.5 231 12.5 101160 93
2002-10-30 04:41:56 51°14.221 2°55.328 8.8 228 12.5 101160 93
2002-10-30 04:42:01 51°14.229 2°55.317 9.1 224 12.5 101160 93
2002-10-30 04:42:06 51°14.238 2°55.306 9.2 227 12.5 101160 93
2002-10-30 04:42:10 51°14.244 2°55.296 7.5 225 12.5 101160 93
2002-10-30 04:42:16 51°14.254 2°55.282 8.6 221 12.5 101160 93
2002-10-30 04:42:21 51°14.261 2°55.27 9.2 221 12.5 101160 93
2002-10-30 04:42:26 51°14.269 2°55.257 9.1 221 12.6 101160 93
2002-10-30 04:42:30 51°14.275 2°55.246 7.6 225 12.6 101160 93
2002-10-30 04:42:35 51°14.282 2°55.232 7.7 222 12.6 101160 93
2002-10-30 04:42:41 51°14.291 2°55.213 8.9 223 12.6 101160 93
2002-10-30 04:42:46 51°14.299 2°55.197 8.7 218 12.5 101160 93
2002-10-30 04:42:51 51°14.307 2°55.179 9.1 222 12.5 101160 93
2002-10-30 04:42:56 51°14.314 2°55.162 9.1 219 12.5 101160 93
2002-10-30 04:43:01 51°14.322 2°55.143 10.3 219 12.5 101160 93
2002-10-30 04:43:06 51°14.329 2°55.124 10 219 12.5 101160 93
2002-10-30 04:43:10 51°14.335 2°55.109 10.1 219 12.5 101160 93
2002-10-30 04:43:16 51°14.343 2°55.085 10.2 219 12.5 101150 93
2002-10-30 04:43:21 51°14.351 2°55.065 10.3 218 12.5 101150 93
2002-10-30 04:43:25 51°14.357 2°55.048 10.1 217 12.5 101150 93
2002-10-30 04:43:30 51°14.364 2°55.027 11.3 217 12.5 101150 93
2002-10-30 04:43:34 51°14.371 2°55.01 11.5 218 12.6 101150 93
2002-10-30 04:43:41 51°14.384 2°54.981 11.4 220 12.6 101150 93
2002-10-30 04:43:45 51°14.392 2°54.965 11.3 224 12.6 101150 93
2002-10-30 04:43:50 51°14.404 2°54.945 11.2 223 12.6 101150 93
2002-10-30 04:43:54 51°14.414 2°54.93 11.8 225 12.6 101150 93
2002-10-30 04:44:01 51°14.434 2°54.905 11.3 226 12.6 101150 93
2002-10-30 04:44:05 51°14.446 2°54.891 12.3 224 12.6 101150 93
2002-10-30 04:44:11 51°14.464 2°54.872 12.5 225 12.6 101150 93
2002-10-30 04:44:16 51°14.48 2°54.857 11.9 226 12.6 101150 93
2002-10-30 04:44:21 51°14.496 2°54.841 11.9 226 12.6 101150 93
2002-10-30 04:44:25 51°14.508 2°54.828 11.6 226 12.6 101150 93
2002-10-30 04:44:30 51°14.523 2°54.812 12.5 228 12.6 101150 93
2002-10-30 04:44:36 51°14.542 2°54.793 13 227 12.6 101140 93
2002-10-30 04:44:41 51°14.558 2°54.778 12.8 227 12.6 101140 93
2002-10-30 04:44:50 51°14.588 2°54.753 11.6 226 12.6 101150 93
2002-10-30 04:44:54 51°14.601 2°54.741 12.2 225 12.6 101150 93
2002-10-30 04:45:00 51°14.62 2°54.723 11.8 226 12.6 101150 93
2002-10-30 04:45:04 51°14.632 2°54.71 12.4 222 12.6 101160 93
2002-10-30 04:45:10 51°14.65 2°54.689 11.1 225 12.6 101160 93
2002-10-30 04:45:14 51°14.662 2°54.675 11.8 224 12.6 101150 93
2002-10-30 04:45:20 51°14.679 2°54.654 11.6 223 12.6 101150 93
2002-10-30 04:45:25 51°14.694 2°54.636 11.7 224 12.6 101150 93
2002-10-30 04:45:30 51°14.709 2°54.618 11 224 12.6 101150 93
2002-10-30 04:45:34 51°14.721 2°54.604 11.6 224 12.6 101150 93
2002-10-30 04:45:40 51°14.74 2°54.584 11.4 228 12.6 101150 93
2002-10-30 04:45:45 51°14.756 2°54.569 11 228 12.6 101150 93
2002-10-30 04:45:49 51°14.769 2°54.558 12.6 228 12.6 101150 93
2002-10-30 04:45:54 51°14.787 2°54.546 12 229 12.6 101150 93
2002-10-30 04:45:59 51°14.804 2°54.535 11.6 231 12.6 101150 93
2002-10-30 04:46:05 51°14.826 2°54.521 11.8 232 12.6 101150 93
2002-10-30 04:46:10 51°14.843 2°54.51 11.7 232 12.6 101150 93
2002-10-30 04:46:14 51°14.858 2°54.501 12.2 231 12.6 101150 93
2002-10-30 04:46:20 51°14.88 2°54.489 12.3 233 12.6 101150 93
2002-10-30 04:46:25 51°14.898 2°54.481 12.1 235 12.6 101160 93
2002-10-30 04:46:30 51°14.917 2°54.474 12.2 234 12.6 101160 93
2002-10-30 04:46:34 51°14.932 2°54.469 11.5 235 12.6 101160 93
2002-10-30 04:46:40 51°14.955 2°54.464 11.4 237 12.6 101160 93
2002-10-30 04:46:45 51°14.974 2°54.461 12.3 236 12.6 101160 93
2002-10-30 04:46:50 51°14.994 2°54.459 11.4 238 12.6 101160 93
2002-10-30 04:46:54 51°15.009 2°54.459 12.6 238 12.6 101160 93
2002-10-30 04:47:00 51°15.032 2°54.462 12.5 241 12.6 101160 93
2002-10-30 04:47:04 51°15.048 2°54.465 11.5 238 12.6 101160 93
2002-10-30 04:47:10 51°15.071 2°54.47 12.3 241 12.6 101160 93
2002-10-30 04:47:14 51°15.086 2°54.473 11.4 240 12.6 101150 93
2002-10-30 04:47:20 51°15.109 2°54.481 11.7 244 12.6 101150 93
2002-10-30 04:47:24 51°15.124 2°54.486 11.4 242 12.6 101150 93
2002-10-30 04:47:30 51°15.147 2°54.496 12.1 245 12.6 101150 93
2002-10-30 04:47:34 51°15.162 2°54.504 12.6 246 12.6 101170 93
2002-10-30 04:47:40 51°15.184 2°54.517 12 244 12.6 101170 93
2002-10-30 04:47:45 51°15.203 2°54.528 12.5 243 12.6 101160 93
2002-10-30 04:47:50 51°15.221 2°54.539 11.7 245 12.6 101160 93
2002-10-30 04:47:54 51°15.236 2°54.548 11.6 245 12.6 101160 93
2002-10-30 04:48:00 51°15.259 2°54.561 11.9 247 12.6 101160 93
2002-10-30 04:48:05 51°15.277 2°54.571 12 244 12.6 101150 93
2002-10-30 04:48:10 51°15.296 2°54.582 12.1 245 12.6 101150 93
2002-10-30 04:48:14 51°15.311 2°54.589 11.9 243 12.6 101150 93
2002-10-30 04:48:20 51°15.333 2°54.602 12.5 247 12.6 101150 93
2002-10-30 04:48:25 51°15.352 2°54.612 11 242 12.6 101150 93
2002-10-30 04:48:30 51°15.371 2°54.624 12 243 12.6 101150 93
2002-10-30 04:48:34 51°15.386 2°54.632 10.9 243 12.6 101150 93
2002-10-30 04:48:40 51°15.408 2°54.646 11.3 246 12.6 101150 93
2002-10-30 04:48:45 51°15.426 2°54.658 11.8 243 12.6 101150 93
2002-10-30 04:48:50 51°15.445 2°54.67 11.9 244 12.6 101150 93
2002-10-30 04:48:54 51°15.459 2°54.68 12.2 245 12.7 101160 93
2002-10-30 04:49:00 51°15.482 2°54.695 12.3 244 12.7 101160 93
2002-10-30 04:49:05 51°15.499 2°54.709 11.9 246 12.7 101160 93
2002-10-30 04:49:09 51°15.514 2°54.719 11 243 12.7 101160 93
2002-10-30 04:49:14 51°15.531 2°54.734 12.3 250 12.6 101160 93
2002-10-30 04:49:20 51°15.553 2°54.751 11.6 249 12.6 101160 93
2002-10-30 04:49:25 51°15.57 2°54.767 11.5 248 12.6 101160 93
2002-10-30 04:49:30 51°15.587 2°54.783 11.7 250 12.6 101160 93
2002-10-30 04:49:34 51°15.601 2°54.797 10.7 247 12.7 101160 93
2002-10-30 04:49:40 51°15.62 2°54.821 10.9 252 12.7 101160 93
2002-10-30 04:49:44 51°15.632 2°54.837 10.8 251 12.7 101150 93
2002-10-30 04:49:50 51°15.649 2°54.864 10.5 251 12.7 101150 93
2002-10-30 04:49:54 51°15.66 2°54.882 10.8 254 12.7 101160 93
2002-10-30 04:50:00 51°15.677 2°54.909 10.2 254 12.7 101160 93
2002-10-30 04:50:05 51°15.69 2°54.934 11.1 257 12.6 101170 93
2002-10-30 04:50:09 51°15.7 2°54.954 8.7 252 12.6 101170 93
2002-10-30 04:50:14 51°15.711 2°54.981 10.9 261 12.6 101160 93
2002-10-30 04:50:20 51°15.724 2°55.013 10.3 259 12.6 101160 93
2002-10-30 04:50:25 51°15.734 2°55.041 9.9 258 12.7 101170 93
2002-10-30 04:50:30 51°15.744 2°55.068 11.6 260 12.7 101170 93
2002-10-30 04:50:34 51°15.752 2°55.091 11.4 257 12.7 101160 93
2002-10-30 04:50:39 51°15.762 2°55.118 10.7 257 12.7 101160 93
2002-10-30 04:50:45 51°15.773 2°55.152 11 259 12.7 101160 93
2002-10-30 04:50:50 51°15.783 2°55.18 10.8 254 12.7 101160 93
2002-10-30 04:50:54 51°15.792 2°55.202 10.2 251 12.6 101160 93
2002-10-30 04:50:59 51°15.802 2°55.23 10.5 251 12.6 101160 93
2002-10-30 04:51:02 51°15.808 2°55.246 10.3 253 12.6 101160 93
2002-10-30 04:51:09 51°15.822 2°55.285 10.3 251 12.6 101160 93
2002-10-30 04:51:14 51°15.832 2°55.313 11.5 254 12.6 101160 93
2002-10-30 04:51:20 51°15.845 2°55.345 11.2 246 12.6 101160 93
2002-10-30 04:51:25 51°15.855 2°55.373 11.5 254 12.6 101160 93
2002-10-30 04:51:30 51°15.866 2°55.4 10.2 247 12.6 101160 93
2002-10-30 04:51:34 51°15.874 2°55.422 10.9 252 12.6 101150 93
2002-10-30 04:51:40 51°15.888 2°55.454 10.8 251 12.6 101150 93
2002-10-30 04:51:45 51°15.899 2°55.481 10.9 251 12.6 101160 93
2002-10-30 04:51:50 51°15.909 2°55.509 11.3 250 12.6 101160 93
2002-10-30 04:51:54 51°15.918 2°55.531 11.8 249 12.6 101160 93
2002-10-30 04:52:00 51°15.931 2°55.564 10.9 250 12.6 101160 93
2002-10-30 04:52:05 51°15.942 2°55.59 11 247 12.6 101160 93
2002-10-30 04:52:10 51°15.953 2°55.618 10.9 249 12.6 101160 93
2002-10-30 04:52:14 51°15.962 2°55.639 11.3 251 12.6 101160 93
2002-10-30 04:52:20 51°15.974 2°55.673 9.7 252 12.6 101160 93
2002-10-30 04:52:25 51°15.987 2°55.698 10.7 244 12.6 101160 93
2002-10-30 04:52:30 51°15.997 2°55.726 10.4 251 12.6 101160 93
2002-10-30 04:52:34 51°16.006 2°55.748 11.1 250 12.6 101160 93
2002-10-30 04:52:40 51°16.02 2°55.78 10.8 247 12.6 101160 93
2002-10-30 04:52:44 51°16.029 2°55.802 11.1 246 12.6 101150 93
2002-10-30 04:52:50 51°16.043 2°55.834 10.3 251 12.6 101150 93
2002-10-30 04:52:54 51°16.051 2°55.855 10.9 248 12.6 101160 93
2002-10-30 04:53:00 51°16.065 2°55.888 12.3 248 12.6 101160 93
2002-10-30 04:53:05 51°16.077 2°55.914 11.4 250 12.6 101160 93
2002-10-30 04:53:10 51°16.088 2°55.941 11.3 248 12.6 101160 93
2002-10-30 04:53:14 51°16.098 2°55.962 10.4 245 12.6 101160 93
2002-10-30 04:53:20 51°16.111 2°55.994 9.8 250 12.6 101160 93
2002-10-30 04:53:25 51°16.122 2°56.02 10.7 250 12.6 101160 93
2002-10-30 04:53:30 51°16.134 2°56.047 11.1 249 12.6 101160 93
2002-10-30 04:53:34 51°16.143 2°56.069 11.3 248 12.6 101160 93
2002-10-30 04:53:40 51°16.157 2°56.101 10 250 12.6 101160 93
2002-10-30 04:53:45 51°16.168 2°56.128 10.7 244 12.6 101160 93
2002-10-30 04:53:50 51°16.18 2°56.154 10.5 250 12.6 101160 93
2002-10-30 04:53:54 51°16.189 2°56.175 10.4 244 12.6 101160 93
2002-10-30 04:54:00 51°16.203 2°56.207 10.8 246 12.6 101160 93
2002-10-30 04:54:05 51°16.214 2°56.235 10.9 248 12.6 101160 93
2002-10-30 04:54:09 51°16.224 2°56.255 10.3 244 12.6 101160 93
2002-10-30 04:54:14 51°16.235 2°56.282 10.7 247 12.6 101160 93
2002-10-30 04:54:20 51°16.25 2°56.313 11.4 244 12.6 101160 93
2002-10-30 04:54:24 51°16.258 2°56.335 11.4 248 12.6 101150 93
2002-10-30 04:54:30 51°16.273 2°56.366 12 242 12.6 101150 93
2002-10-30 04:54:34 51°16.281 2°56.388 12.6 247 12.6 101170 93
2002-10-30 04:54:40 51°16.296 2°56.42 11.5 245 12.6 101170 93
2002-10-30 04:54:45 51°16.308 2°56.447 11.6 246 12.6 101160 93
2002-10-30 04:54:50 51°16.32 2°56.473 11.7 242 12.6 101160 93
2002-10-30 04:54:54 51°16.329 2°56.495 12.6 248 12.6 101160 93
2002-10-30 04:55:00 51°16.344 2°56.526 12.5 245 12.6 101160 93
2002-10-30 04:55:05 51°16.355 2°56.553 11.7 248 12.6 101170 93
2002-10-30 04:55:09 51°16.365 2°56.574 11.9 245 12.6 101170 93
2002-10-30 04:55:14 51°16.376 2°56.602 12.4 247 12.6 101160 93
2002-10-30 04:55:20 51°16.39 2°56.635 12.1 249 12.6 101160 93
2002-10-30 04:55:25 51°16.401 2°56.662 11.2 253 12.6 101160 93
2002-10-30 04:55:30 51°16.412 2°56.69 10.7 244 12.6 101160 93
2002-10-30 04:55:34 51°16.421 2°56.711 11.4 245 12.6 101160 93
2002-10-30 04:55:39 51°16.431 2°56.74 12 247 12.6 101160 93
2002-10-30 04:55:45 51°16.445 2°56.773 11.1 246 12.6 101160 93
2002-10-30 04:55:50 51°16.455 2°56.8 11.2 246 12.6 101160 93
2002-10-30 04:55:54 51°16.464 2°56.823 10.8 247 12.6 101160 93
2002-10-30 04:56:00 51°16.477 2°56.856 11.5 245 12.6 101160 93
2002-10-30 04:56:05 51°16.487 2°56.885 11.8 247 12.6 101160 93
2002-10-30 04:56:10 51°16.498 2°56.912 11.2 247 12.6 101160 93
2002-10-30 04:56:14 51°16.506 2°56.935 12 245 12.5 101170 93
2002-10-30 04:56:19 51°16.517 2°56.963 11.8 248 12.5 101170 93
2002-10-30 04:56:25 51°16.53 2°56.997 11.6 246 12.5 101160 93
2002-10-30 04:56:29 51°16.539 2°57.018 11.4 241 12.5 101160 93
2002-10-30 04:56:34 51°16.549 2°57.047 11.5 249 12.5 101170 93
2002-10-30 04:56:40 51°16.563 2°57.08 11.2 246 12.5 101170 93
2002-10-30 04:56:45 51°16.574 2°57.107 10.7 250 12.5 101160 93
2002-10-30 04:56:50 51°16.584 2°57.136 11.1 247 12.5 101160 93
2002-10-30 04:56:54 51°16.593 2°57.158 11.5 252 12.5 101160 93
2002-10-30 04:57:00 51°16.606 2°57.191 11.3 246 12.5 101160 93
2002-10-30 04:57:05 51°16.617 2°57.219 11.6 250 12.5 101160 93
2002-10-30 04:57:10 51°16.628 2°57.246 11.1 246 12.5 101160 93
2002-10-30 04:57:14 51°16.636 2°57.269 11.2 249 12.5 101160 93
2002-10-30 04:57:20 51°16.65 2°57.302 11.7 246 12.5 101160 93
2002-10-30 04:57:25 51°16.661 2°57.33 11.4 245 12.5 101170 93
2002-10-30 04:57:30 51°16.672 2°57.358 12 245 12.5 101170 93
2002-10-30 04:57:34 51°16.681 2°57.38 12.3 248 12.5 101160 93
2002-10-30 04:57:40 51°16.694 2°57.414 11 249 12.5 101160 93
2002-10-30 04:57:45 51°16.706 2°57.44 11.4 242 12.5 101170 93
2002-10-30 04:57:50 51°16.716 2°57.468 12 248 12.5 101170 93
2002-10-30 04:57:54 51°16.726 2°57.49 11.4 247 12.5 101170 93
2002-10-30 04:58:00 51°16.74 2°57.523 11.6 247 12.5 101170 93
2002-10-30 04:58:05 51°16.751 2°57.55 10.9 245 12.5 101170 93
2002-10-30 04:58:10 51°16.762 2°57.577 11.8 247 12.5 101170 93
2002-10-30 04:58:14 51°16.771 2°57.6 11.9 248 12.5 101160 93
2002-10-30 04:58:20 51°16.784 2°57.633 11.1 246 12.5 101160 93
2002-10-30 04:58:25 51°16.795 2°57.661 11.1 249 12.5 101160 93
2002-10-30 04:58:30 51°16.806 2°57.688 11 244 12.5 101160 93
2002-10-30 04:58:34 51°16.814 2°57.711 11.5 249 12.5 101160 93
2002-10-30 04:58:40 51°16.827 2°57.744 12.1 248 12.5 101160 93
2002-10-30 04:58:45 51°16.838 2°57.772 11.7 251 12.5 101160 93
2002-10-30 04:58:50 51°16.85 2°57.799 11.2 245 12.5 101160 93
2002-10-30 04:58:54 51°16.858 2°57.823 11.5 248 12.5 101160 93
2002-10-30 04:59:00 51°16.872 2°57.855 11.1 245 12.5 101160 93
2002-10-30 04:59:05 51°16.882 2°57.884 11.1 247 12.5 101160 93
2002-10-30 04:59:10 51°16.894 2°57.911 11.5 248 12.5 101160 93
2002-10-30 04:59:14 51°16.903 2°57.933 11.5 250 12.5 101170 93
2002-10-30 04:59:20 51°16.917 2°57.966 11 250 12.5 101170 93
2002-10-30 04:59:25 51°16.928 2°57.994 11 244 12.5 101170 93
2002-10-30 04:59:30 51°16.94 2°58.021 11.6 244 12.5 101170 93
2002-10-30 04:59:34 51°16.947 2°58.045 11.2 251 12.5 101170 93
2002-10-30 04:59:40 51°16.961 2°58.077 11.2 246 12.5 101170 93
2002-10-30 04:59:45 51°16.972 2°58.105 11.4 246 12.4 101160 93
2002-10-30 04:59:49 51°16.981 2°58.127 11 247 12.4 101160 93
2002-10-30 04:59:54 51°16.993 2°58.155 10.8 245 12.4 101170 93
2002-10-30 05:00:00 51°17.006 2°58.188 11.7 247 12.4 101170 93
2002-10-30 05:00:05 51°17.017 2°58.215 11.3 247 12.4 101170 93
2002-10-30 05:00:10 51°17.028 2°58.244 10.8 248 12.4 101170 93
2002-10-30 05:00:14 51°17.037 2°58.266 11.1 250 12.4 101160 93
2002-10-30 05:00:20 51°17.049 2°58.299 10.8 247 12.4 101160 93
2002-10-30 05:00:25 51°17.06 2°58.327 10.4 250 12.4 101160 93
2002-10-30 05:00:30 51°17.071 2°58.354 10.5 245 12.4 101160 93
2002-10-30 05:00:34 51°17.08 2°58.376 11.2 244 12.4 101170 93
2002-10-30 05:00:39 51°17.091 2°58.404 10.3 246 12.4 101170 93
2002-10-30 05:00:45 51°17.104 2°58.437 11 244 12.4 101170 93
2002-10-30 05:00:50 51°17.116 2°58.464 10.6 244 12.4 101170 93
2002-10-30 05:00:54 51°17.123 2°58.487 11 250 12.4 101170 93
2002-10-30 05:01:00 51°17.137 2°58.52 10.4 242 12.4 101170 93
2002-10-30 05:01:05 51°17.146 2°58.549 10.9 251 12.4 101170 93
2002-10-30 05:01:10 51°17.157 2°58.576 10.2 242 12.4 101170 93
2002-10-30 05:01:14 51°17.165 2°58.599 10.7 251 12.4 101170 93
2002-10-30 05:01:20 51°17.178 2°58.632 11.2 251 12.4 101170 93
2002-10-30 05:01:25 51°17.189 2°58.66 10.5 246 12.4 101170 93
2002-10-30 05:01:30 51°17.199 2°58.688 10.2 246 12.4 101170 93
2002-10-30 05:01:34 51°17.208 2°58.71 10.5 246 12.4 101170 93
2002-10-30 05:01:40 51°17.221 2°58.743 11.5 248 12.4 101170 93
2002-10-30 05:01:44 51°17.23 2°58.764 10.7 247 12.4 101170 93
2002-10-30 05:01:50 51°17.244 2°58.797 10.6 246 12.4 101170 93
2002-10-30 05:01:54 51°17.252 2°58.819 11 247 12.4 101170 93
2002-10-30 05:02:00 51°17.267 2°58.851 10.8 248 12.4 101170 93
2002-10-30 05:02:05 51°17.278 2°58.878 11.2 247 12.4 101170 93
2002-10-30 05:02:10 51°17.289 2°58.906 10 254 12.4 101170 93
2002-10-30 05:02:14 51°17.298 2°58.927 11 244 12.4 101160 93
2002-10-30 05:02:20 51°17.31 2°58.962 11.6 249 12.4 101160 93
2002-10-30 05:02:25 51°17.322 2°58.988 10.9 250 12.4 101170 93
2002-10-30 05:02:30 51°17.332 2°59.016 11.4 250 12.4 101170 93
2002-10-30 05:02:34 51°17.342 2°59.038 11.3 246 12.4 101180 93
2002-10-30 05:02:40 51°17.355 2°59.071 10.3 249 12.4 101180 93
2002-10-30 05:02:45 51°17.365 2°59.099 10.9 248 12.3 101170 93
2002-10-30 05:02:50 51°17.377 2°59.126 10.2 248 12.3 101170 93
2002-10-30 05:02:55 51°17.387 2°59.154 10.9 247 12.3 101170 93
2002-10-30 05:03:00 51°17.398 2°59.182 11.3 246 12.3 101170 93
2002-10-30 05:03:05 51°17.409 2°59.21 10.1 248 12.3 101170 93
2002-10-30 05:03:10 51°17.42 2°59.238 11.1 246 12.3 101170 93
2002-10-30 05:03:14 51°17.428 2°59.26 10.2 251 12.3 101160 93
2002-10-30 05:03:20 51°17.442 2°59.294 11.3 246 12.3 101160 93
2002-10-30 05:03:25 51°17.452 2°59.322 10.2 250 12.3 101170 93
2002-10-30 05:03:30 51°17.463 2°59.349 10.5 246 12.3 101170 93
2002-10-30 05:03:34 51°17.472 2°59.371 10.5 248 12.3 101170 93
2002-10-30 05:03:38 51°17.48 2°59.393 10.8 245 12.3 101170 93
2002-10-30 05:03:45 51°17.496 2°59.433 10.7 246 12.3 101170 93
2002-10-30 05:03:50 51°17.507 2°59.46 10.4 243 12.3 101170 93
2002-10-30 05:03:54 51°17.515 2°59.483 11.1 249 12.3 101170 93
2002-10-30 05:03:59 51°17.526 2°59.511 10.5 245 12.3 101170 93
2002-10-30 05:04:05 51°17.539 2°59.544 10.9 245 12.3 101170 93
2002-10-30 05:04:10 51°17.55 2°59.572 10.7 246 12.3 101170 93
2002-10-30 05:04:14 51°17.558 2°59.595 10.3 245 12.3 101170 93
2002-10-30 05:04:20 51°17.572 2°59.629 10.6 246 12.3 101170 93
2002-10-30 05:04:25 51°17.582 2°59.658 10.7 247 12.3 101170 93
2002-10-30 05:04:29 51°17.591 2°59.68 9.6 245 12.3 101170 93
2002-10-30 05:04:34 51°17.601 2°59.709 10.1 247 12.3 101170 93
2002-10-30 05:04:38 51°17.61 2°59.731 10.2 246 12.3 101170 93
2002-10-30 05:04:45 51°17.625 2°59.771 11.4 247 12.3 101170 93
2002-10-30 05:04:50 51°17.635 2°59.799 10.7 251 12.3 101170 93
2002-10-30 05:04:54 51°17.644 2°59.821 10.6 245 12.3 101170 93
2002-10-30 05:05:00 51°17.656 2°59.855 10.4 253 12.3 101170 93
2002-10-30 05:05:05 51°17.667 2°59.883 10.6 244 12.3 101170 93
2002-10-30 05:05:10 51°17.677 2°59.911 10.3 250 12.3 101170 93
2002-10-30 05:05:14 51°17.686 2°59.933 10 244 12.3 101170 93
2002-10-30 05:05:20 51°17.699 2°59.967 10 245 12.3 101170 93
2002-10-30 05:05:25 51°17.709 2°59.996 10.2 247 12.3 101170 93
2002-10-30 05:05:30 51°17.72 3°0.023 10.9 244 12.3 101170 93
2002-10-30 05:05:34 51°17.729 3°0.046 10.2 247 12.3 101170 93
2002-10-30 05:05:40 51°17.742 3°0.08 10 246 12.3 101170 93
2002-10-30 05:05:45 51°17.752 3°0.108 9.6 249 12.3 101170 93
2002-10-30 05:05:50 51°17.762 3°0.137 10.6 248 12.3 101170 93
2002-10-30 05:05:54 51°17.77 3°0.16 10 249 12.3 101180 93
2002-10-30 05:06:00 51°17.783 3°0.194 10.1 248 12.3 101180 93
2002-10-30 05:06:05 51°17.794 3°0.222 10.2 248 12.3 101180 93
2002-10-30 05:06:10 51°17.804 3°0.25 10.5 246 12.3 101180 93
2002-10-30 05:06:14 51°17.813 3°0.272 10.9 248 12.3 101170 93
2002-10-30 05:06:18 51°17.822 3°0.295 10.5 247 12.3 101170 93
2002-10-30 05:06:30 51°17.847 3°0.362 10 247 12.3 101170 93
2002-10-30 05:06:34 51°17.856 3°0.384 10.8 251 12.3 101180 93
2002-10-30 05:06:40 51°17.868 3°0.418 10.9 248 12.3 101180 93
2002-10-30 05:06:45 51°17.88 3°0.445 10.1 251 12.3 101170 93
2002-10-30 05:06:50 51°17.889 3°0.474 10.8 250 12.3 101170 93
2002-10-30 05:06:54 51°17.898 3°0.496 9.5 244 12.3 101180 93
2002-10-30 05:07:00 51°17.91 3°0.53 9.7 247 12.3 101180 93
2002-10-30 05:07:05 51°17.921 3°0.559 10.8 248 12.3 101170 93
2002-10-30 05:07:10 51°17.932 3°0.586 9.7 247 12.3 101170 93
2002-10-30 05:07:14 51°17.939 3°0.609 9.7 249 12.3 101170 93
2002-10-30 05:07:20 51°17.952 3°0.643 9.9 248 12.3 101170 93
2002-10-30 05:07:25 51°17.963 3°0.671 9.8 249 12.3 101180 93
2002-10-30 05:07:30 51°17.974 3°0.699 10.1 247 12.3 101180 93
2002-10-30 05:07:34 51°17.983 3°0.721 10.6 246 12.3 101180 93
2002-10-30 05:07:40 51°17.995 3°0.755 10.9 248 12.3 101180 93
2002-10-30 05:07:45 51°18.006 3°0.783 10.4 244 12.3 101180 93
2002-10-30 05:07:50 51°18.017 3°0.811 10.5 243 12.3 101180 93
2002-10-30 05:07:54 51°18.025 3°0.833 10.1 246 12.3 101170 93
2002-10-30 05:08:00 51°18.037 3°0.866 11 239 12.3 101170 93
2002-10-30 05:08:05 51°18.048 3°0.894 10.9 247 12.3 101180 93
2002-10-30 05:08:10 51°18.059 3°0.923 11.6 244 12.3 101180 93
2002-10-30 05:08:14 51°18.067 3°0.946 11.9 249 12.3 101180 93
2002-10-30 05:08:20 51°18.081 3°0.979 12 248 12.3 101180 93
2002-10-30 05:08:25 51°18.091 3°1.007 12.5 251 12.3 101190 93
2002-10-30 05:08:30 51°18.101 3°1.036 11.9 249 12.3 101190 93
2002-10-30 05:08:34 51°18.109 3°1.059 11.7 249 12.3 101180 93
2002-10-30 05:08:40 51°18.121 3°1.093 11.8 251 12.3 101180 93
2002-10-30 05:08:45 51°18.132 3°1.121 11.7 251 12.3 101180 93
2002-10-30 05:08:50 51°18.142 3°1.149 11.5 252 12.3 101180 93
2002-10-30 05:08:54 51°18.151 3°1.171 11.5 248 12.2 101170 93
2002-10-30 05:09:00 51°18.163 3°1.205 11.6 248 12.2 101170 93
2002-10-30 05:09:05 51°18.174 3°1.233 11.6 247 12.2 101170 93
2002-10-30 05:09:09 51°18.182 3°1.256 11.5 250 12.2 101170 93
2002-10-30 05:09:14 51°18.193 3°1.284 9.9 254 12.2 101160 93
2002-10-30 05:09:20 51°18.205 3°1.317 10.7 247 12.2 101160 93
2002-10-30 05:09:25 51°18.215 3°1.345 11.3 245 12.2 101180 93
2002-10-30 05:09:30 51°18.225 3°1.374 11.8 250 12.2 101180 93
2002-10-30 05:09:34 51°18.234 3°1.396 10.8 251 12.2 101170 93
2002-10-30 05:09:40 51°18.247 3°1.43 11.3 250 12.2 101170 93
2002-10-30 05:09:45 51°18.257 3°1.458 11.4 251 12.2 101180 93
2002-10-30 05:09:50 51°18.267 3°1.486 11.4 247 12.2 101180 93
2002-10-30 05:09:54 51°18.275 3°1.509 11.3 252 12.2 101180 93
2002-10-30 05:10:00 51°18.289 3°1.542 12.2 247 12.2 101180 93
2002-10-30 05:10:05 51°18.299 3°1.57 11.4 252 12.2 101180 93
2002-10-30 05:10:10 51°18.31 3°1.597 11.5 250 12.2 101180 93
2002-10-30 05:10:14 51°18.319 3°1.62 11.6 249 12.2 101180 93
2002-10-30 05:10:20 51°18.331 3°1.653 11.2 249 12.2 101180 93
2002-10-30 05:10:25 51°18.342 3°1.681 12 248 12.2 101180 93
2002-10-30 05:10:30 51°18.353 3°1.708 11.4 251 12.2 101180 93
2002-10-30 05:10:34 51°18.362 3°1.73 11.4 244 12.1 101180 93
2002-10-30 05:10:40 51°18.375 3°1.764 11.4 250 12.1 101180 93
2002-10-30 05:10:45 51°18.386 3°1.791 11.3 251 12.1 101170 93
2002-10-30 05:10:50 51°18.396 3°1.819 12.1 249 12.1 101170 93
2002-10-30 05:10:54 51°18.405 3°1.841 12.4 249 12.1 101180 93
2002-10-30 05:11:00 51°18.418 3°1.875 11 247 12.1 101180 93
2002-10-30 05:11:05 51°18.428 3°1.903 12 251 12.1 101180 93
2002-10-30 05:11:10 51°18.438 3°1.932 11.1 253 12.1 101180 93
2002-10-30 05:11:14 51°18.447 3°1.954 12 249 12.1 101170 93
2002-10-30 05:11:20 51°18.458 3°1.989 10.5 251 12.1 101170 93
2002-10-30 05:11:24 51°18.467 3°2.011 10.2 249 12.1 101180 93
2002-10-30 05:11:30 51°18.478 3°2.046 12.2 255 12.1 101180 93
2002-10-30 05:11:34 51°18.487 3°2.069 12 249 12.1 101170 93
2002-10-30 05:11:40 51°18.499 3°2.103 10.4 253 12.1 101170 93
2002-10-30 05:11:44 51°18.507 3°2.126 11.1 251 12.1 101180 93
2002-10-30 05:11:50 51°18.519 3°2.16 10.7 249 12.1 101180 93
2002-10-30 05:11:54 51°18.527 3°2.182 12 251 12.1 101170 93
2002-10-30 05:12:00 51°18.54 3°2.215 10.5 250 12.1 101170 93
2002-10-30 05:12:05 51°18.55 3°2.244 10.8 251 12.1 101170 93
2002-10-30 05:12:10 51°18.562 3°2.271 10.9 251 12.1 101170 93
2002-10-30 05:12:14 51°18.57 3°2.293 11.1 252 12 101180 93
2002-10-30 05:12:20 51°18.582 3°2.326 11.4 253 12 101180 93
2002-10-30 05:12:25 51°18.592 3°2.355 10.4 252 12 101180 93
2002-10-30 05:12:30 51°18.603 3°2.383 11.4 253 12 101180 93
2002-10-30 05:12:34 51°18.611 3°2.406 11.3 252 12 101180 93
2002-10-30 05:12:40 51°18.623 3°2.44 11.8 252 12 101180 93
2002-10-30 05:12:45 51°18.634 3°2.468 10.4 251 12 101180 93
2002-10-30 05:12:50 51°18.644 3°2.496 11 249 12 101180 93
2002-10-30 05:12:54 51°18.652 3°2.519 11 254 12 101180 93
2002-10-30 05:13:00 51°18.665 3°2.552 10.1 250 12 101180 93
2002-10-30 05:13:05 51°18.675 3°2.581 10.4 255 12 101180 93
2002-10-30 05:13:10 51°18.686 3°2.608 10.2 248 12 101180 93
2002-10-30 05:13:14 51°18.694 3°2.631 10.8 249 12 101180 93
2002-10-30 05:13:18 51°18.703 3°2.652 11.2 246 12 101180 93
2002-10-30 05:13:24 51°18.716 3°2.686 10.6 248 12 101180 93
2002-10-30 05:13:30 51°18.729 3°2.719 10.6 251 12 101180 93
2002-10-30 05:13:34 51°18.738 3°2.741 10.8 251 12 101190 93
2002-10-30 05:13:40 51°18.751 3°2.774 10.2 250 12 101190 93
2002-10-30 05:13:45 51°18.762 3°2.801 11.3 248 12 101180 93
2002-10-30 05:13:49 51°18.771 3°2.823 11.2 251 12 101180 93
2002-10-30 05:13:54 51°18.782 3°2.85 11 249 12 101180 93
2002-10-30 05:14:00 51°18.794 3°2.884 10.3 250 12 101180 93
2002-10-30 05:14:05 51°18.805 3°2.911 11.1 250 12 101180 93
2002-10-30 05:14:10 51°18.816 3°2.938 11.7 248 12 101180 93
2002-10-30 05:14:14 51°18.825 3°2.961 11.5 249 12 101180 93
2002-10-30 05:14:20 51°18.838 3°2.994 11.2 250 12 101180 93
2002-10-30 05:14:25 51°18.849 3°3.021 10.8 250 12 101180 93
2002-10-30 05:14:30 51°18.859 3°3.049 10.4 251 12 101180 93
2002-10-30 05:14:35 51°18.87 3°3.077 10.9 248 12 101190 93
2002-10-30 05:14:40 51°18.881 3°3.104 11.4 249 12 101190 93
2002-10-30 05:14:45 51°18.891 3°3.133 11.3 251 12 101180 93
2002-10-30 05:14:50 51°18.902 3°3.16 11.3 248 12 101180 93
2002-10-30 05:14:54 51°18.91 3°3.183 11.1 248 12 101180 93
2002-10-30 05:15:00 51°18.923 3°3.216 10.1 250 12 101180 93
2002-10-30 05:15:05 51°18.933 3°3.245 10.4 249 12 101180 93
2002-10-30 05:15:09 51°18.941 3°3.267 10.7 245 12 101180 93
2002-10-30 05:15:14 51°18.952 3°3.296 11 249 12 101190 93
2002-10-30 05:15:20 51°18.965 3°3.329 11 247 12 101190 93
2002-10-30 05:15:25 51°18.974 3°3.358 10.7 249 12 101180 93
2002-10-30 05:15:30 51°18.985 3°3.386 11.3 248 12 101180 93
2002-10-30 05:15:34 51°18.993 3°3.409 10.9 250 12 101180 93
2002-10-30 05:15:40 51°19.005 3°3.443 11 246 12 101180 93
2002-10-30 05:15:45 51°19.014 3°3.472 11.1 249 12 101190 93
2002-10-30 05:15:49 51°19.023 3°3.494 10.9 245 12 101190 93
2002-10-30 05:15:54 51°19.033 3°3.523 11 249 12 101180 93
2002-10-30 05:16:00 51°19.046 3°3.557 10.6 252 12 101180 93
2002-10-30 05:16:05 51°19.057 3°3.584 11.5 249 12 101190 93
2002-10-30 05:16:10 51°19.068 3°3.612 11.4 249 12 101190 93
2002-10-30 05:16:15 51°19.078 3°3.64 10.5 250 12 101180 93
2002-10-30 05:16:20 51°19.089 3°3.668 11.5 249 12 101180 93
2002-10-30 05:16:25 51°19.1 3°3.696 10.9 250 12 101190 93
2002-10-30 05:16:30 51°19.11 3°3.723 11.6 249 12 101190 93
2002-10-30 05:16:34 51°19.118 3°3.746 11.9 250 12 101180 93
2002-10-30 05:16:40 51°19.132 3°3.779 10.5 251 12 101180 93
2002-10-30 05:16:45 51°19.143 3°3.806 11 253 12 101180 93
2002-10-30 05:16:50 51°19.154 3°3.833 11.3 250 12 101180 93
2002-10-30 05:16:54 51°19.162 3°3.856 11.1 250 12 101190 93
2002-10-30 05:17:00 51°19.176 3°3.888 11.4 246 12 101190 93
2002-10-30 05:17:05 51°19.187 3°3.916 10.9 250 12 101180 93
2002-10-30 05:17:09 51°19.196 3°3.938 11.2 246 12 101180 93
2002-10-30 05:17:14 51°19.206 3°3.966 11.4 249 12 101190 93
2002-10-30 05:17:20 51°19.219 3°3.999 10.4 251 12 101190 93
2002-10-30 05:17:25 51°19.23 3°4.027 11 251 12 101190 93
2002-10-30 05:17:30 51°19.24 3°4.055 10.8 252 12 101190 93
2002-10-30 05:17:34 51°19.249 3°4.076 10.8 245 12 101190 93
2002-10-30 05:17:40 51°19.263 3°4.109 10.7 250 12 101190 93
2002-10-30 05:17:45 51°19.274 3°4.137 10.9 249 12 101190 93
2002-10-30 05:17:50 51°19.286 3°4.163 11 249 12 101190 93
2002-10-30 05:17:54 51°19.295 3°4.185 10.5 250 12 101180 93
2002-10-30 05:18:00 51°19.308 3°4.217 10.8 248 12 101180 93
2002-10-30 05:18:05 51°19.32 3°4.244 10.8 248 12 101180 93
2002-10-30 05:18:10 51°19.331 3°4.271 10.2 246 12 101180 93
2002-10-30 05:18:13 51°19.337 3°4.288 10.8 253 12 101190 93
2002-10-30 05:18:18 51°19.35 3°4.314 10.7 247 12 101190 93
2002-10-30 05:18:24 51°19.362 3°4.347 11.1 252 12 101190 93
2002-10-30 05:18:30 51°19.376 3°4.38 10.8 246 12 101190 93
2002-10-30 05:18:35 51°19.387 3°4.407 10.4 250 12 101190 93
2002-10-30 05:18:40 51°19.397 3°4.435 10.8 249 12 101190 93
2002-10-30 05:18:45 51°19.409 3°4.461 10.2 248 12 101190 93
2002-10-30 05:18:50 51°19.42 3°4.489 10.4 247 12 101190 93
2002-10-30 05:18:55 51°19.431 3°4.515 10.4 244 12 101180 93
2002-10-30 05:19:00 51°19.443 3°4.542 11.1 248 12 101180 93
2002-10-30 05:19:05 51°19.455 3°4.569 11.2 248 12 101190 93
2002-10-30 05:19:10 51°19.467 3°4.595 10.5 244 12 101190 93
2002-10-30 05:19:14 51°19.476 3°4.616 10.9 246 12 101190 93
2002-10-30 05:19:20 51°19.491 3°4.648 10.2 246 12 101190 93
2002-10-30 05:19:24 51°19.501 3°4.669 10.7 247 12 101190 93
2002-10-30 05:19:29 51°19.513 3°4.695 10.6 251 12 101190 93
2002-10-30 05:19:34 51°19.525 3°4.722 10.7 246 12 101190 93
2002-10-30 05:19:38 51°19.533 3°4.744 10.5 250 12 101190 93
2002-10-30 05:19:45 51°19.549 3°4.782 10.8 247 12 101190 93
2002-10-30 05:19:50 51°19.561 3°4.81 11.3 249 12 101190 93
2002-10-30 05:19:54 51°19.57 3°4.831 10 247 12 101190 93
2002-10-30 05:20:00 51°19.584 3°4.863 10.1 245 12 101190 93
2002-10-30 05:20:05 51°19.595 3°4.891 11 251 12 101190 93
2002-10-30 05:20:10 51°19.606 3°4.917 10.5 247 12 101190 93
2002-10-30 05:20:14 51°19.615 3°4.939 10.7 249 12 101190 93
2002-10-30 05:20:20 51°19.629 3°4.971 10.8 249 12 101190 93
2002-10-30 05:20:25 51°19.64 3°4.999 10.8 247 12 101200 93
2002-10-30 05:20:30 51°19.652 3°5.026 10.3 246 12 101200 93
2002-10-30 05:20:34 51°19.661 3°5.048 10.8 251 12 101190 93
2002-10-30 05:20:40 51°19.674 3°5.08 10.6 249 12 101190 93
2002-10-30 05:20:45 51°19.686 3°5.107 10.6 249 12 101190 93
2002-10-30 05:20:50 51°19.696 3°5.135 11.3 252 12 101190 93
2002-10-30 05:20:54 51°19.706 3°5.156 10.4 247 12 101190 93
2002-10-30 05:20:58 51°19.714 3°5.178 10.4 247 12 101190 93
2002-10-30 05:21:05 51°19.73 3°5.217 10.7 246 12 101190 93
2002-10-30 05:21:10 51°19.74 3°5.245 10.9 248 12 101190 93
2002-10-30 05:21:14 51°19.749 3°5.267 10 251 12 101190 94
2002-10-30 05:21:20 51°19.761 3°5.301 9.6 252 12 101190 94
2002-10-30 05:21:25 51°19.773 3°5.328 10.2 245 12 101200 93
2002-10-30 05:21:30 51°19.782 3°5.357 10.2 250 12 101200 93
2002-10-30 05:21:35 51°19.793 3°5.384 10.7 247 12 101200 93
2002-10-30 05:21:40 51°19.803 3°5.413 11 254 12 101200 93
2002-10-30 05:21:45 51°19.814 3°5.44 10.2 244 12 101190 93
2002-10-30 05:21:50 51°19.824 3°5.468 10.7 245 12 101190 93
2002-10-30 05:21:54 51°19.832 3°5.491 10.4 250 12 101200 94
2002-10-30 05:22:00 51°19.845 3°5.524 10.2 245 12 101200 94
2002-10-30 05:22:05 51°19.856 3°5.552 10.2 250 12 101190 94
2002-10-30 05:22:09 51°19.864 3°5.574 10.2 250 12 101190 94
2002-10-30 05:22:14 51°19.875 3°5.602 10.2 246 12 101190 94
2002-10-30 05:22:20 51°19.888 3°5.635 10.7 250 12 101190 94
2002-10-30 05:22:25 51°19.899 3°5.663 10.4 243 12 101200 94
2002-10-30 05:22:30 51°19.909 3°5.691 10.2 248 12 101200 94
2002-10-30 05:22:34 51°19.917 3°5.713 10.4 245 12 101190 94
2002-10-30 05:22:40 51°19.931 3°5.746 10.5 244 12 101190 94
2002-10-30 05:22:45 51°19.941 3°5.775 10.4 243 12 101200 94
2002-10-30 05:22:50 51°19.952 3°5.802 10.7 246 12 101200 94
2002-10-30 05:22:54 51°19.96 3°5.825 10.5 243 12 101190 94
2002-10-30 05:23:00 51°19.974 3°5.858 10.4 247 12 101190 94
2002-10-30 05:23:04 51°19.983 3°5.879 10.5 245 12 101200 94
2002-10-30 05:23:10 51°19.998 3°5.91 10.2 243 12 101200 94
2002-10-30 05:23:15 51°20.01 3°5.937 10.7 246 12 101200 94
2002-10-30 05:23:20 51°20.024 3°5.961 10.3 244 12 101200 94
2002-10-30 05:23:25 51°20.038 3°5.986 10.7 240 12 101200 94
2002-10-30 05:23:30 51°20.052 3°6.01 11.2 244 12 101200 94
2002-10-30 05:23:34 51°20.064 3°6.028 10.5 241 12 101200 94
2002-10-30 05:23:40 51°20.082 3°6.055 11.4 239 12 101200 94
2002-10-30 05:23:45 51°20.097 3°6.077 10.9 239 12 101200 94
2002-10-30 05:23:50 51°20.113 3°6.098 10.7 236 12 101200 94
2002-10-30 05:23:54 51°20.125 3°6.117 11.6 246 12 101200 94
2002-10-30 05:24:00 51°20.145 3°6.14 10.7 237 12 101200 94
2002-10-30 05:24:05 51°20.159 3°6.162 11.4 245 12 101200 94
2002-10-30 05:24:10 51°20.176 3°6.182 11.1 240 12 101200 94
2002-10-30 05:24:14 51°20.188 3°6.199 11.3 242 12 101200 94
2002-10-30 05:24:20 51°20.207 3°6.224 11 241 12 101200 94
2002-10-30 05:24:25 51°20.222 3°6.246 10.9 243 12 101200 94
2002-10-30 05:24:30 51°20.238 3°6.266 11.2 239 12 101200 94
2002-10-30 05:24:34 51°20.25 3°6.285 11.2 243 12 101210 94
2002-10-30 05:24:40 51°20.269 3°6.309 11 241 12 101210 94
2002-10-30 05:24:45 51°20.283 3°6.333 12.1 246 12 101200 94
2002-10-30 05:24:50 51°20.298 3°6.354 12.1 236 12 101200 94
2002-10-30 05:24:54 51°20.31 3°6.374 12.7 246 12 101200 94
2002-10-30 05:25:00 51°20.327 3°6.401 11.3 241 12 101200 94
2002-10-30 05:25:05 51°20.341 3°6.424 12.1 242 12 101200 94
2002-10-30 05:25:10 51°20.356 3°6.447 12.2 245 12 101200 94
2002-10-30 05:25:14 51°20.368 3°6.465 12.8 237 12 101200 94
2002-10-30 05:25:20 51°20.385 3°6.492 11.8 244 12 101200 94
2002-10-30 05:25:25 51°20.4 3°6.514 12.5 237 12 101200 94
2002-10-30 05:25:30 51°20.415 3°6.536 11.7 240 12 101200 94
2002-10-30 05:25:34 51°20.427 3°6.554 12.4 243 12 101210 94
2002-10-30 05:25:40 51°20.446 3°6.579 11.4 238 12 101210 94
2002-10-30 05:25:45 51°20.46 3°6.602 12.6 242 11.9 101190 93
2002-10-30 05:25:50 51°20.476 3°6.623 12.3 241 11.9 101190 93
2002-10-30 05:25:54 51°20.487 3°6.642 12.8 242 11.9 101200 93
2002-10-30 05:26:00 51°20.506 3°6.667 11.8 238 11.9 101200 93
2002-10-30 05:26:05 51°20.521 3°6.69 11.9 244 11.9 101210 93
2002-10-30 05:26:09 51°20.533 3°6.705 12.4 238 11.9 101210 93
2002-10-30 05:26:14 51°20.548 3°6.729 12.8 246 11.9 101200 93
2002-10-30 05:26:20 51°20.567 3°6.754 12.9 240 11.9 101200 93
2002-10-30 05:26:25 51°20.582 3°6.776 12.2 240 11.9 101200 93
2002-10-30 05:26:30 51°20.596 3°6.798 12.4 243 11.9 101200 93
2002-10-30 05:26:34 51°20.608 3°6.816 12.8 238 11.9 101200 93
2002-10-30 05:26:40 51°20.626 3°6.843 12.3 244 11.9 101200 93
2002-10-30 05:26:45 51°20.642 3°6.865 12.3 238 11.9 101200 93
2002-10-30 05:26:49 51°20.654 3°6.882 11.4 237 11.9 101200 93
2002-10-30 05:26:54 51°20.669 3°6.904 12.9 242 11.9 101200 93
2002-10-30 05:27:00 51°20.687 3°6.93 11.7 242 11.9 101200 93
2002-10-30 05:27:05 51°20.703 3°6.952 12.7 240 11.8 101200 93
2002-10-30 05:27:10 51°20.718 3°6.973 12 243 11.8 101200 93
2002-10-30 05:27:14 51°20.731 3°6.99 12.4 240 11.8 101200 93
2002-10-30 05:27:20 51°20.749 3°7.016 11.4 237 11.8 101200 93
2002-10-30 05:27:25 51°20.764 3°7.038 12.5 241 11.8 101200 93
2002-10-30 05:27:30 51°20.78 3°7.059 11.4 238 11.8 101200 93
2002-10-30 05:27:34 51°20.792 3°7.077 12.2 239 11.8 101200 93
2002-10-30 05:27:40 51°20.81 3°7.103 11.9 240 11.8 101200 93
2002-10-30 05:27:45 51°20.826 3°7.125 11.8 239 11.8 101200 93
2002-10-30 05:27:49 51°20.838 3°7.142 12.2 238 11.8 101200 93
2002-10-30 05:27:54 51°20.854 3°7.163 12.6 241 11.8 101200 93
2002-10-30 05:28:00 51°20.873 3°7.188 12.3 235 11.8 101200 93
2002-10-30 05:28:05 51°20.888 3°7.21 12.3 242 11.8 101210 93
2002-10-30 05:28:10 51°20.904 3°7.229 12.2 235 11.8 101210 93
2002-10-30 05:28:14 51°20.916 3°7.248 12.1 243 11.8 101200 93
2002-10-30 05:28:20 51°20.936 3°7.272 12 240 11.8 101200 93
2002-10-30 05:28:25 51°20.951 3°7.295 12.6 246 11.8 101210 93
2002-10-30 05:28:29 51°20.963 3°7.312 12.9 241 11.8 101210 93
2002-10-30 05:28:34 51°20.978 3°7.335 12.8 245 11.8 101210 93
2002-10-30 05:28:40 51°20.996 3°7.362 12.1 243 11.8 101210 93
2002-10-30 05:28:45 51°21.011 3°7.384 12.8 244 11.8 101210 93
2002-10-30 05:28:50 51°21.025 3°7.407 13 243 11.8 101210 93
2002-10-30 05:28:54 51°21.038 3°7.424 11.6 237 11.8 101190 93
2002-10-30 05:29:00 51°21.055 3°7.452 12.4 242 11.8 101190 93
2002-10-30 05:29:05 51°21.071 3°7.473 11.9 237 11.8 101210 93
2002-10-30 05:29:10 51°21.085 3°7.497 12.2 243 11.8 101210 93
2002-10-30 05:29:14 51°21.098 3°7.513 12.3 236 11.8 101190 93
2002-10-30 05:29:20 51°21.116 3°7.541 12.2 239 11.8 101190 93
2002-10-30 05:29:24 51°21.128 3°7.559 12.1 244 11.8 101210 93
2002-10-30 05:29:29 51°21.143 3°7.581 12.8 239 11.8 101210 93
2002-10-30 05:29:34 51°21.159 3°7.602 12.9 243 11.8 101200 93
2002-10-30 05:29:40 51°21.177 3°7.628 12.5 240 11.8 101200 93
2002-10-30 05:29:45 51°21.193 3°7.649 12.9 242 11.8 101200 93
2002-10-30 05:29:50 51°21.209 3°7.671 12.6 244 11.8 101200 93
2002-10-30 05:29:54 51°21.221 3°7.689 11.9 240 11.8 101200 93
2002-10-30 05:30:00 51°21.239 3°7.716 12.7 244 11.8 101200 93
2002-10-30 05:30:05 51°21.255 3°7.738 12.1 241 11.7 101200 93
2002-10-30 05:30:10 51°21.269 3°7.761 12.1 242 11.7 101200 93
2002-10-30 05:30:14 51°21.281 3°7.779 12.2 244 11.7 101200 93
2002-10-30 05:30:20 51°21.3 3°7.807 12.6 239 11.7 101200 93
2002-10-30 05:30:25 51°21.315 3°7.83 13 243 11.7 101210 93
2002-10-30 05:30:30 51°21.329 3°7.853 13 241 11.7 101210 93
2002-10-30 05:30:34 51°21.341 3°7.871 12.7 239 11.7 101200 93
2002-10-30 05:30:38 51°21.353 3°7.889 12.2 240 11.7 101200 93
2002-10-30 05:30:45 51°21.374 3°7.922 12 240 11.7 101200 93
2002-10-30 05:30:50 51°21.389 3°7.944 11.3 235 11.7 101200 93
2002-10-30 05:30:54 51°21.401 3°7.964 12.4 242 11.7 101190 93
2002-10-30 05:31:00 51°21.419 3°7.99 12.7 238 11.7 101190 93
2002-10-30 05:31:05 51°21.434 3°8.013 12.6 242 11.7 101200 93
2002-10-30 05:31:10 51°21.449 3°8.036 12.8 239 11.7 101200 93
2002-10-30 05:31:14 51°21.461 3°8.054 12.5 241 11.7 101200 93
2002-10-30 05:31:20 51°21.479 3°8.082 12.7 239 11.7 101200 93
2002-10-30 05:31:25 51°21.494 3°8.104 12 240 11.7 101210 93
2002-10-30 05:31:30 51°21.509 3°8.127 12 240 11.7 101210 93
2002-10-30 05:31:34 51°21.522 3°8.144 12.6 237 11.7 101200 93
2002-10-30 05:31:40 51°21.539 3°8.173 12.9 241 11.7 101200 93
2002-10-30 05:31:45 51°21.555 3°8.195 12.2 237 11.7 101200 93
2002-10-30 05:31:50 51°21.569 3°8.218 11.7 237 11.7 101200 93
2002-10-30 05:31:54 51°21.582 3°8.236 12.1 238 11.7 101200 93
2002-10-30 05:31:58 51°21.593 3°8.255 11.5 237 11.7 101200 93
2002-10-30 05:32:05 51°21.614 3°8.287 11.9 236 11.7 101200 93
2002-10-30 05:32:10 51°21.629 3°8.308 12.8 237 11.7 101200 93
2002-10-30 05:32:14 51°21.641 3°8.327 12 237 11.7 101200 93
2002-10-30 05:32:20 51°21.659 3°8.354 13 238 11.7 101200 93
2002-10-30 05:32:25 51°21.674 3°8.377 11.5 239 11.7 101200 93
2002-10-30 05:32:30 51°21.689 3°8.399 12.2 235 11.7 101200 93
2002-10-30 05:32:34 51°21.701 3°8.418 11.9 240 11.7 101200 93
2002-10-30 05:32:40 51°21.72 3°8.444 11.9 234 11.7 101200 93
2002-10-30 05:32:45 51°21.733 3°8.469 12 240 11.7 101190 93
2002-10-30 05:32:50 51°21.749 3°8.49 11.6 237 11.7 101190 93
2002-10-30 05:32:54 51°21.761 3°8.509 12.4 241 11.7 101200 93
2002-10-30 05:33:00 51°21.779 3°8.537 12.5 239 11.7 101200 93
2002-10-30 05:33:05 51°21.794 3°8.56 12.7 239 11.7 101200 93
2002-10-30 05:33:10 51°21.809 3°8.583 12.2 237 11.7 101200 93
2002-10-30 05:33:14 51°21.821 3°8.602 12.4 239 11.7 101200 93
2002-10-30 05:33:20 51°21.839 3°8.629 13.1 238 11.7 101200 93
2002-10-30 05:33:25 51°21.855 3°8.651 12.1 240 11.7 101200 93
2002-10-30 05:33:30 51°21.87 3°8.674 12.1 238 11.7 101200 93
2002-10-30 05:33:34 51°21.882 3°8.693 12.4 238 11.7 101210 93
2002-10-30 05:33:40 51°21.9 3°8.72 11.7 240 11.7 101210 93
2002-10-30 05:33:45 51°21.916 3°8.741 12.4 236 11.7 101210 93
2002-10-30 05:33:50 51°21.93 3°8.766 12.7 243 11.7 101210 93
2002-10-30 05:33:54 51°21.944 3°8.782 11.8 234 11.7 101200 93
2002-10-30 05:34:00 51°21.961 3°8.811 11.5 239 11.7 101200 93
2002-10-30 05:34:05 51°21.976 3°8.833 12.7 240 11.7 101200 93
2002-10-30 05:34:10 51°21.991 3°8.857 12.3 240 11.7 101200 93
2002-10-30 05:34:15 51°22.006 3°8.88 12.5 236 11.7 101190 93
2002-10-30 05:34:20 51°22.021 3°8.903 12.5 241 11.7 101190 93
2002-10-30 05:34:24 51°22.034 3°8.92 12.3 237 11.7 101190 93
2002-10-30 05:34:30 51°22.052 3°8.949 13.1 240 11.7 101190 93
2002-10-30 05:34:34 51°22.065 3°8.966 11.7 234 11.7 101200 93
2002-10-30 05:34:40 51°22.083 3°8.994 11.8 239 11.7 101200 93
2002-10-30 05:34:45 51°22.098 3°9.016 11.7 238 11.7 101190 93
2002-10-30 05:34:50 51°22.113 3°9.039 11.8 239 11.7 101190 93
2002-10-30 05:34:54 51°22.125 3°9.058 12 239 11.7 101190 93
2002-10-30 05:35:00 51°22.144 3°9.085 11.6 240 11.7 101190 93
2002-10-30 05:35:05 51°22.157 3°9.111 11.5 241 11.6 101190 93
2002-10-30 05:35:10 51°22.172 3°9.135 12.3 240 11.6 101190 93
2002-10-30 05:35:14 51°22.182 3°9.157 12 244 11.7 101190 93
2002-10-30 05:35:20 51°22.198 3°9.188 11.8 237 11.7 101190 93
2002-10-30 05:35:25 51°22.209 3°9.216 11.7 244 11.7 101200 93
2002-10-30 05:35:29 51°22.219 3°9.237 12.4 245 11.7 101200 93
2002-10-30 05:35:34 51°22.23 3°9.265 12.2 243 11.6 101200 93
2002-10-30 05:35:40 51°22.243 3°9.3 12.4 247 11.6 101200 93
2002-10-30 05:35:45 51°22.254 3°9.329 11.7 247 11.7 101200 93
2002-10-30 05:35:50 51°22.264 3°9.358 11.2 246 11.7 101200 93
2002-10-30 05:35:54 51°22.271 3°9.382 11.7 244 11.7 101190 93
2002-10-30 05:36:00 51°22.282 3°9.418 11.5 251 11.7 101190 93
2002-10-30 05:36:05 51°22.29 3°9.448 11.4 248 11.7 101200 93
2002-10-30 05:36:10 51°22.297 3°9.48 11.3 252 11.7 101200 93
2002-10-30 05:36:14 51°22.303 3°9.505 11 247 11.7 101190 93
2002-10-30 05:36:20 51°22.309 3°9.543 11.4 253 11.7 101190 93
2002-10-30 05:36:25 51°22.316 3°9.575 10.8 246 11.7 101200 93
2002-10-30 05:36:30 51°22.321 3°9.607 10.7 249 11.7 101200 93
2002-10-30 05:36:34 51°22.326 3°9.633 11.4 252 11.7 101190 93
2002-10-30 05:36:40 51°22.332 3°9.671 10.5 250 11.7 101190 93
2002-10-30 05:36:45 51°22.338 3°9.703 10.3 250 11.6 101190 93
2002-10-30 05:36:50 51°22.344 3°9.735 11.2 246 11.6 101190 93
2002-10-30 05:36:54 51°22.349 3°9.761 11.5 250 11.6 101190 93
2002-10-30 05:37:00 51°22.357 3°9.799 11.6 247 11.6 101190 93
2002-10-30 05:37:05 51°22.363 3°9.831 11.7 249 11.6 101190 93
2002-10-30 05:37:10 51°22.369 3°9.864 11.8 248 11.6 101190 93
2002-10-30 05:37:14 51°22.374 3°9.889 11.2 251 11.6 101200 93
2002-10-30 05:37:20 51°22.381 3°9.928 12 250 11.6 101200 93
2002-10-30 05:37:25 51°22.388 3°9.96 11.9 248 11.7 101200 93
2002-10-30 05:37:30 51°22.393 3°9.993 11.5 251 11.7 101200 93
2002-10-30 05:37:34 51°22.399 3°10.018 11.7 247 11.7 101190 93
2002-10-30 05:37:40 51°22.407 3°10.057 11.3 249 11.7 101190 93
2002-10-30 05:37:45 51°22.413 3°10.09 12.5 249 11.7 101190 93
2002-10-30 05:37:50 51°22.42 3°10.121 11.4 246 11.7 101190 93
2002-10-30 05:37:54 51°22.425 3°10.147 11.3 252 11.6 101190 93
2002-10-30 05:38:00 51°22.433 3°10.184 11.9 247 11.6 101190 93
2002-10-30 05:38:05 51°22.439 3°10.216 11.4 249 11.7 101190 93
2002-10-30 05:38:09 51°22.444 3°10.242 11.3 247 11.7 101190 93
2002-10-30 05:38:14 51°22.45 3°10.275 11.4 246 11.7 101190 93
2002-10-30 05:38:20 51°22.457 3°10.313 11.4 249 11.7 101190 93
2002-10-30 05:38:25 51°22.463 3°10.346 11.9 248 11.6 101200 93
2002-10-30 05:38:30 51°22.469 3°10.378 11.4 246 11.6 101200 93
2002-10-30 05:38:34 51°22.473 3°10.404 11.4 249 11.6 101190 93
2002-10-30 05:38:40 51°22.481 3°10.443 11.2 246 11.6 101190 93
2002-10-30 05:38:45 51°22.487 3°10.476 11.5 246 11.6 101190 93
2002-10-30 05:38:50 51°22.493 3°10.508 10.6 246 11.6 101190 93
2002-10-30 05:38:54 51°22.498 3°10.534 11.1 246 11.6 101190 93
2002-10-30 05:39:00 51°22.505 3°10.572 11 249 11.6 101190 93
2002-10-30 05:39:05 51°22.511 3°10.605 11.6 244 11.6 101190 93
2002-10-30 05:39:09 51°22.515 3°10.631 11.8 249 11.6 101190 93
2002-10-30 05:39:14 51°22.522 3°10.663 11.5 246 11.6 101200 93
2002-10-30 05:39:20 51°22.528 3°10.702 11.3 248 11.6 101200 93
2002-10-30 05:39:25 51°22.535 3°10.734 10.8 245 11.7 101200 93
2002-10-30 05:39:30 51°22.541 3°10.767 11.2 246 11.7 101200 93
2002-10-30 05:39:34 51°22.545 3°10.793 11.4 246 11.7 101190 93
2002-10-30 05:39:40 51°22.553 3°10.832 11.7 250 11.7 101190 93
2002-10-30 05:39:45 51°22.559 3°10.864 11.3 245 11.6 101190 93
2002-10-30 05:39:49 51°22.563 3°10.89 12.4 249 11.6 101190 93
2002-10-30 05:39:54 51°22.569 3°10.923 11.4 249 11.6 101200 93
2002-10-30 05:40:00 51°22.577 3°10.962 11.2 245 11.6 101200 93
2002-10-30 05:40:05 51°22.582 3°10.994 12.6 248 11.6 101190 93
2002-10-30 05:40:10 51°22.588 3°11.026 10.9 246 11.6 101190 93
2002-10-30 05:40:14 51°22.593 3°11.052 11.3 249 11.6 101190 93
2002-10-30 05:40:20 51°22.6 3°11.09 10.7 246 11.6 101190 93
2002-10-30 05:40:25 51°22.606 3°11.123 11.4 250 11.6 101190 93
2002-10-30 05:40:29 51°22.611 3°11.148 11.3 245 11.6 101190 93
2002-10-30 05:40:34 51°22.617 3°11.181 10.4 247 11.7 101190 93
2002-10-30 05:40:38 51°22.622 3°11.206 11.3 246 11.7 101190 93